"TOA5","AWS1","CR1000","7964","CR1000.Std.14","CPU:AWS1_114.CR1","64363","TBL110"
"TIMESTAMP","RECORD","Wind_spd_WVc(1)","Wind_spd_WVc(2)","Air_Temp_Avg","Humidity_Avg","SW_upper_Wm2_Avg","Rain_Tot","Press_Avg","Issui_Tot","Depth_cm","SR50A_Raw","Quality","Ground_Temp_Avg(1)","Ground_Temp_Avg(2)","SW_lower_Wm2_Avg","Albedo_Avg","SWC_per(1)","SWC_per(2)","Period(1)","Period(2)"
"TS","RN","","","","","","","","","","","","","","","","","","",""
"","","WVc","WVc","Avg","Avg","Avg","Tot","Avg","Tot","Smp","Smp","Smp","Avg","Avg","Avg","Avg","Smp","Smp","Smp","Smp"
"2016-05-11 00:00:00",234925,0.9,114.2,14.07,100,0,0,857.299,0,-4.761,3.148,174,12.26,11.14,0,0,52.27,60.56,33.85,35.81
"2016-05-11 00:10:00",234926,0.667,34.81,13.97,100,0,0,857.2084,0,-4.839,3.149,170,12.26,11.14,0,0,52.27,60.62,33.85,35.82
"2016-05-11 00:20:00",234927,1.342,78.03,13.92,100,0,0,857.2885,0,-4.484,3.146,175,12.26,11.12,0.007576497,0,52.27,60.62,33.85,35.82
"2016-05-11 00:30:00",234928,1.143,42.69,13.86,100,0,0,857.2463,0,-4.229,3.144,180,12.27,11.11,0,0,52.27,60.62,33.85,35.82
"2016-05-11 00:40:00",234929,0.767,98.5,13.74,100,0,0.5,857.1537,0,-4.512,3.147,184,12.27,11.11,0,0,52.27,60.68,33.85,35.83
"2016-05-11 00:50:00",234930,1.002,46.68,13.71,100,0,0,856.9874,0,-3.029,3.133,203,12.27,11.11,0,0,52.21,60.62,33.84,35.82
"2016-05-11 01:00:00",234931,0.787,130.6,13.66,100,0,0.5,856.8547,0,-0.594,3.109,295,12.27,11.13,0,0,52.27,60.62,33.85,35.82
"2016-05-11 01:10:00",234932,1.015,154.8,13.78,100,0,0,856.5346,0,-4.664,3.148,186,12.27,11.15,0.1477417,0,52.27,60.68,33.85,35.83
"2016-05-11 01:20:00",234933,0.83,140.9,13.78,100,0,0,856.4167,0,-1.438,3.117,254,12.27,11.15,0.06061198,0,52.27,60.68,33.85,35.83
"2016-05-11 01:30:00",234934,0.833,194.1,13.78,100,0,0.5,856.1852,0,-1.432,3.116,257,12.26,11.17,0.1932007,0,52.32,60.68,33.87,35.83
"2016-05-11 01:40:00",234935,0.852,134.4,13.85,100,0,0,855.7999,0,-3.277,3.134,208,12.25,11.19,0.2576009,0,52.32,60.74,33.87,35.85
"2016-05-11 01:50:00",234936,0.794,138.7,13.88,100,0,0,855.5029,0,-4.356,3.145,193,12.25,11.19,0.2500244,0,52.32,60.74,33.87,35.85
"2016-05-11 02:00:00",234937,0.693,166.9,13.88,100,0,0.5,855.2735,0,-4.2,3.143,194,12.25,11.22,0.2916951,0,52.38,60.8,33.88,35.86
"2016-05-11 02:10:00",234938,0.702,112.6,13.9,100,0,0,855.1682,0,-3.175,3.133,205,12.22,11.22,0.106071,0,52.32,60.8,33.87,35.86
"2016-05-11 02:20:00",234939,1.205,144.4,13.96,100,0,0,854.7324,0,-4.497,3.144,192,12.21,11.23,0.2235067,0,52.32,60.8,33.87,35.86
"2016-05-11 02:30:00",234940,1.601,167.3,14.44,100,0.01178683,0,854.5912,0,-2.923,3.127,219,12.21,11.23,0.4697428,0.177,52.32,60.8,33.87,35.86
"2016-05-11 02:40:00",234941,1.207,167.8,14.57,100,0,0,854.3997,0,-4.619,3.144,188,12.19,11.23,0.4621663,0,52.32,60.8,33.87,35.86
"2016-05-11 02:50:00",234942,0.551,39.77,14.38,100,0,0,854.2396,0,-4.546,3.144,179,12.19,11.23,0.4545898,0,52.27,60.86,33.85,35.88
"2016-05-11 03:00:00",234943,0.603,147.3,14.36,100,0,0.5,854.0901,0,-4.697,3.145,175,12.2,11.23,0.4432251,0,52.32,60.86,33.87,35.88
"2016-05-11 03:10:00",234944,0.786,165.3,14.35,100,0,0,853.8523,0,-4.287,3.141,174,12.21,11.21,0.4167074,0,52.32,60.8,33.87,35.86
"2016-05-11 03:20:00",234945,1.034,171.2,14.68,100,0.01178683,0,853.5007,0,-4.481,3.141,179,12.21,11.2,0.6023315,0.193,52.32,60.8,33.87,35.86
"2016-05-11 03:30:00",234946,1.209,175.4,14.87,100,0,1,853.5701,0,-4.33,3.14,183,12.2,11.19,0.3409424,0,52.32,60.86,33.87,35.88
"2016-05-11 03:40:00",234947,0.703,106.7,14.6,100,0,1,853.6923,0,-2.923,3.127,205,12.21,11.2,0.1932007,0,52.44,60.86,33.89,35.88
"2016-05-11 03:50:00",234948,0.928,115.3,14.62,100,0,1,853.7238,0,-4.872,3.146,193,12.22,11.2,0.2879069,0,52.6,60.98,33.94,35.9
"2016-05-11 04:00:00",234949,0.906,149.2,14.57,100,0,0.5,853.2712,0,-3.303,3.13,200,12.2,11.2,0.3447306,0,52.83,61.1,33.99,35.93
"2016-05-11 04:10:00",234950,1.535,156.9,14.89,100,0,1,853.0332,0,-4.083,3.135,196,12.19,11.21,0.4015544,0,53,61.34,34.03,35.98
"2016-05-11 04:20:00",234951,0.634,194.3,15.17,100,0,0.5,852.9679,0,-4.73,3.142,177,12.2,11.21,0.2841187,0,53.16,61.64,34.07,36.05
"2016-05-11 04:30:00",234952,0.846,85.2,15.08,100,0,1,853.1385,0,-4.959,3.144,181,12.22,11.2,0.2121419,0,53.22,61.82,34.08,36.09
"2016-05-11 04:40:00",234953,0.862,79.41,14.96,100,0,0.5,853.4207,0,-1.244,3.109,253,12.27,11.21,0.003788249,0,53.33,62.06,34.11,36.15
"2016-05-11 04:50:00",234954,0.925,65.87,14.91,100,0.1139393,0,853.6291,0,-4.247,3.138,185,12.24,11.24,0.007576497,0.016,53.28,62.24,34.1,36.19
"2016-05-11 05:00:00",234955,1.003,92.8,14.97,100,0.7229255,0.5,853.6649,0,-3.213,3.127,202,12.29,11.26,0.09470621,0.093,53.28,62.48,34.1,36.24
"2016-05-11 05:10:00",234956,1.128,99.6,15.08,100,1.795527,0,853.6711,0,-2.155,3.116,218,12.32,11.26,0.2689657,0.145,53.28,62.78,34.1,36.31
"2016-05-11 05:20:00",234957,1.063,89.7,15.16,100,4.054669,0,853.6964,0,-2.44,3.119,210,12.31,11.28,0.5379313,0.134,53.22,63.02,34.08,36.36
"2016-05-11 05:30:00",234958,0.692,71.72,15.26,100,3.932872,0.5,853.6628,0,-0.868,3.103,239,12.31,11.3,0.5265666,0.137,53.22,63.45,34.08,36.46
"2016-05-11 05:40:00",234959,0.969,69.49,15.26,100,6.584908,0,853.5954,0,-0.947,3.104,254,12.3,11.31,0.7424967,0.111,53.22,63.81,34.08,36.54
"2016-05-11 05:50:00",234960,0.514,106.9,15.24,100,7.421773,0.5,853.5049,0,-0.638,3.101,270,12.3,11.32,0.8258382,0.109,53.16,64.12,34.07,36.61
"2016-05-11 06:00:00",234961,1.069,96.9,15.34,100,6.341314,0,853.4438,0,-4.743,3.14,179,12.28,11.32,0.715979,0.113,53.16,64.24,34.07,36.63
"2016-05-11 06:10:00",234962,1.179,135.9,15.41,100,10.5885,0.5,853.2795,0,-3.944,3.132,193,12.28,11.32,1.250122,0.119,53.16,64.3,34.07,36.65
"2016-05-11 06:20:00",234963,1.194,141.3,15.45,100,13.07945,0,853.2122,0,-4.997,3.142,171,12.29,11.32,1.534241,0.117,53.22,64.6,34.08,36.72
"2016-05-11 06:30:00",234964,1.165,77.4,15.48,100,9.303737,0,853.2648,0,-4.411,3.137,188,12.34,11.32,1.015251,0.108,53.16,64.6,34.07,36.72
"2016-05-11 06:40:00",234965,1.225,132.6,15.44,100,7.292118,0.5,853.3301,0,-3.794,3.131,191,12.35,11.32,0.7197673,0.098,53.16,64.66,34.07,36.73
"2016-05-11 06:50:00",234966,1.063,110.7,15.43,100,8.011114,0,853.2585,0,-2.663,3.12,211,12.33,11.32,0.8447794,0.103,53.16,64.73,34.07,36.74
"2016-05-11 07:00:00",234967,1.372,109.5,15.43,100,13.35841,0,853.2606,0,-4.459,3.137,188,12.32,11.32,1.42817,0.107,53.11,64.66,34.06,36.73
"2016-05-11 07:10:00",234968,1.141,133.3,15.51,100,6.72635,0,852.9847,0,-4.767,3.14,188,12.32,11.31,0.6515788,0.096,53.05,64.54,34.04,36.7
"2016-05-11 07:20:00",234969,1.411,122.1,15.55,100,8.726182,0.5,852.7384,0,-3.226,3.125,201,12.32,11.31,0.9091797,0.104,53,64.48,34.03,36.69
"2016-05-11 07:30:00",234970,0.919,136.6,15.57,100,16.43477,0,852.65,0,-2.917,3.122,201,12.32,11.29,1.788053,0.109,53.05,64.36,34.04,36.66
"2016-05-11 07:40:00",234971,1.016,139.5,15.51,100,14.29742,0.5,852.6374,0,-3.218,3.124,204,12.32,11.29,1.496358,0.103,53,64.3,34.03,36.65
"2016-05-11 07:50:00",234972,1.12,159.1,15.46,100,15.95151,0.5,852.5258,0,-5.075,3.143,176,12.33,11.28,1.651676,0.104,53.05,64.3,34.04,36.65
"2016-05-11 08:00:00",234973,1.214,121.4,15.46,100,27.0272,0.5,852.2879,0,-4.507,3.137,176,12.33,11.28,2.996505,0.11,53.05,64.24,34.04,36.63
"2016-05-11 08:10:00",234974,1.038,147.5,15.56,100,42.09862,0,852.3932,0,-3.733,3.129,200,12.34,11.28,4.561051,0.108,53.05,64.24,34.04,36.63
"2016-05-11 08:20:00",234975,1.153,59.91,15.52,100,34.18966,2,852.8648,0,-4.561,3.138,181,12.34,11.28,3.515495,0.102,53.16,64.36,34.07,36.66
"2016-05-11 08:30:00",234976,0.444,41.9,15.43,100,24.99986,3.5,852.9469,0,-3.999,3.133,179,12.4,11.28,2.462362,0.097,53.67,65.96,34.19,37.01
"2016-05-11 08:40:00",234977,0.745,97.3,15.33,100,27.38473,0,853.029,0,-3.951,3.133,198,12.5,11.32,2.860128,0.104,53.78,66.2,34.22,37.07
"2016-05-11 08:50:00",234978,0.838,41.65,15.3,100,25.27489,0,853.1932,0,-4.18,3.135,190,12.51,11.37,2.636621,0.104,53.78,66.26,34.22,37.08
"2016-05-11 09:00:00",234979,1.146,47.68,15.27,100,45.25356,0,853.3112,0,-3.515,3.129,201,12.5,11.4,4.947453,0.109,53.73,66.2,34.21,37.07
"2016-05-11 09:10:00",234980,1.35,42.45,15.26,100,63.69209,0,853.309,0,-4.464,3.138,209,12.52,11.41,6.777177,0.103,53.61,66.2,34.18,37.07
"2016-05-11 09:20:00",234981,1.662,62.78,15.15,100,28.91309,0,853.5491,0,-6.066,3.155,202,12.56,11.41,2.791939,0.096,53.61,66.2,34.18,37.07
"2016-05-11 09:30:00",234982,1.28,76.09,14.94,100,20.76053,0,853.7596,0,-4.125,3.138,217,12.59,11.41,1.848665,0.088,53.5,66.2,34.15,37.07
"2016-05-11 09:40:00",234983,0.348,272.9,14.01,100,21.18093,0.5,853.8312,0,-3.317,3.137,207,12.62,11.41,1.12511,0.051,53.45,66.2,34.14,37.07
"2016-05-11 09:50:00",234984,0.441,209.1,13.31,100,26.06461,1,853.8502,0,-1.094,3.116,364,12.63,11.41,1.878971,0.071,53.45,66.14,34.14,37.06
"2016-05-11 10:00:00",234985,0.409,356.3,12.98,100,31.15652,1.5,853.928,0,-4.765,3.154,199,12.64,11.41,2.651774,0.084,53.45,66.14,34.14,37.06
"2016-05-11 10:10:00",234986,0.174,173.3,12.92,100,48.60495,0.5,854.0944,0,-5.15,3.158,190,12.65,11.41,4.807288,0.098,53.61,66.2,34.18,37.07
"2016-05-11 10:20:00",234987,0.116,58.38,12.85,100,61.51153,0.5,854.3555,0,-4.229,3.149,187,12.71,11.41,6.333952,0.102,53.73,66.26,34.21,37.08
"2016-05-11 10:30:00",234988,0.428,50.33,12.88,100,47.35555,0.5,854.5323,0,-4.969,3.156,190,12.7,11.41,4.746675,0.1,53.67,66.2,34.19,37.07
"2016-05-11 10:40:00",234989,0.845,105.2,12.94,100,75.56142,0,854.4713,0,-4.785,3.153,192,12.69,11.4,8.637207,0.113,53.61,66.2,34.18,37.07
"2016-05-11 10:50:00",234990,0.753,40.68,13.22,100,67.77034,0,854.5323,0,-5.268,3.157,183,12.67,11.38,7.603015,0.112,53.61,66.2,34.18,37.07
"2016-05-11 11:00:00",234991,0.712,49.97,13.33,100,92.18478,0,854.6818,0,-5.366,3.157,177,12.67,11.45,10.51997,0.114,53.5,66.2,34.15,37.07
"2016-05-11 11:10:00",234992,0.632,38.23,13.45,100,70.78383,0,854.6818,0,-5.059,3.154,187,12.67,11.49,7.837886,0.11,53.45,66.14,34.14,37.06
"2016-05-11 11:20:00",234993,0.63,50.05,13.45,100,73.5891,0,854.6503,0,-5.239,3.156,182,12.67,11.49,8.265959,0.111,53.39,66.14,34.13,37.06
"2016-05-11 11:30:00",234994,0.375,70.3,13.42,100,69.09046,0,854.6818,0,-5.546,3.159,172,12.67,11.49,7.568921,0.109,53.33,65.65,34.11,36.95
"2016-05-11 11:40:00",234995,0.522,36.44,13.28,100,70.13555,0,854.7364,0,-4.99,3.155,190,12.68,11.49,7.74318,0.11,53.22,65.22,34.08,36.85
"2016-05-11 11:50:00",234996,0.38,39.21,13.17,100,76.71261,0,854.7053,0,-5.297,3.158,185,12.71,11.48,8.485677,0.11,53.16,64.79,34.07,36.76
"2016-05-11 12:00:00",234997,0.527,59.5,13.12,100,77.83236,0,854.8758,0,-5.194,3.157,190,12.74,11.46,8.784948,0.112,53.11,64.54,34.06,36.7
"2016-05-11 12:10:00",234998,0.353,47.1,13.03,100,71.9193,0,855.0944,0,-4.839,3.154,186,12.74,11.45,7.811369,0.108,53.05,64.3,34.04,36.65
"2016-05-11 12:20:00",234999,0.459,55.32,12.9,100,70.92921,0,855.1898,0,-4.385,3.151,205,12.73,11.46,7.428756,0.104,53,63.93,34.03,36.57
"2016-05-11 12:30:00",235000,0.518,55.69,12.85,100,58.52946,0,855.2025,0,-5.486,3.162,181,12.73,11.5,6.25061,0.106,53,63.75,34.03,36.53
"2016-05-11 12:40:00",235001,0.545,73.37,12.86,100,83.80042,0,855.2314,0,-5.33,3.16,182,12.73,11.53,9.349398,0.111,52.94,63.63,34.02,36.5
"2016-05-11 12:50:00",235002,0.597,127.9,12.7,100,117.0039,0,855.2587,0,-5.641,3.164,178,12.73,11.54,13.52026,0.115,52.83,62.48,33.99,36.24
"2016-05-11 13:00:00",235003,0.543,114.6,12.48,100,73.09012,0,855.1942,0,-5.392,3.163,186,12.78,11.53,7.909863,0.107,52.83,62.3,33.99,36.2
"2016-05-11 13:10:00",235004,0.426,46.36,12.5,100,72.88975,0,855.3874,0,-5.518,3.164,192,12.79,11.55,8.042452,0.11,52.77,62.12,33.98,36.16
"2016-05-11 13:20:00",235005,0.61,110.5,12.52,100,166.0135,0,855.447,0,-0.707,3.116,248,12.79,11.56,20.16864,0.121,52.72,62.06,33.96,36.15
"2016-05-11 13:30:00",235006,0.719,130.1,12.51,100,210.8846,0,855.2458,0,-0.462,3.115,278,12.79,11.58,25.9233,0.123,52.72,61.94,33.96,36.12
"2016-05-11 13:40:00",235007,0.952,138.2,12.4,100,211.6857,0,855.1932,0,-1.177,3.122,254,12.76,11.55,26.04447,0.122,52.66,61.82,33.95,36.09
"2016-05-11 13:50:00",235008,0.735,135.7,12.37,100,161.6924,0,855.1954,0,-1.302,3.123,240,12.76,11.54,20.00582,0.123,52.6,61.76,33.94,36.08
"2016-05-11 14:00:00",235009,0.727,137,12.52,100,237.4422,0,855.1871,0,-1.784,3.127,237,12.75,11.54,30.65456,0.129,52.55,61.64,33.92,36.05
"2016-05-11 14:10:00",235010,0.724,133.7,12.57,100,243.9208,0,855.1686,0,-2.777,3.136,215,12.76,11.54,32.32516,0.13,52.55,61.58,33.92,36.04
"2016-05-11 14:20:00",235011,0.764,118.7,12.65,100,159.3856,0,855.2209,0,-1.477,3.124,236,12.78,11.54,20.35428,0.125,52.49,61.52,33.91,36.02
"2016-05-11 14:30:00",235012,0.917,131.3,12.68,100,321.3878,0,855.2082,0,-2.724,3.135,213,12.8,11.54,43.76567,0.136,52.55,61.46,33.92,36.01
"2016-05-11 14:40:00",235013,0.735,123.9,12.94,100,169.4555,0,855.444,0,-4.029,3.148,200,12.84,11.54,21.61198,0.125,52.49,61.34,33.91,35.98
"2016-05-11 14:50:00",235014,0.587,133,12.61,100,73.27879,0,855.6735,0,-4.418,3.153,202,12.84,11.55,7.997,0.104,52.44,61.34,33.89,35.98
"2016-05-11 15:00:00",235015,0.44,107.9,12.33,100,86.15394,0,855.4567,0,-3.551,3.145,204,12.84,11.54,10.66772,0.117,52.44,61.28,33.89,35.97
"2016-05-11 15:10:00",235016,0.454,70.4,12.44,100,74.20208,0,855.4861,0,-3.245,3.142,202,12.86,11.55,8.826627,0.118,52.38,61.22,33.88,35.96
"2016-05-11 15:20:00",235017,0.548,60.09,12.25,100,45.74865,0,855.6525,0,-3.969,3.151,195,12.92,11.54,5.030799,0.109,52.32,61.16,33.87,35.94
"2016-05-11 15:30:00",235018,0.424,43.68,11.93,100,40.58602,0,855.5156,0,-4.076,3.153,190,12.92,11.55,4.504232,0.108,52.27,61.1,33.85,35.93
"2016-05-11 15:40:00",235019,0.627,69.26,11.81,100,60.4822,0,855.4777,0,-4.231,3.155,194,12.9,11.54,7.701516,0.127,52.27,61.04,33.85,35.92
"2016-05-11 15:50:00",235020,0.507,138,11.86,100,121.8131,0,855.6693,0,-4.635,3.158,189,12.93,11.56,16.83878,0.137,52.27,60.98,33.85,35.9
"2016-05-11 16:00:00",235021,0.536,127.7,11.79,100,58.44701,0,855.8546,0,-4.464,3.158,185,12.93,11.6,7.364362,0.126,52.27,60.98,33.85,35.9
"2016-05-11 16:10:00",235022,0.239,138.2,11.59,100,35.63596,0,855.9355,0,-4.772,3.161,189,12.94,11.59,4.572473,0.128,52.21,60.98,33.84,35.9
"2016-05-11 16:20:00",235023,0.133,52,11.55,100,31.49507,0,856.0901,0,-5.031,3.164,180,12.94,11.58,4.330059,0.137,52.21,60.92,33.84,35.89
"2016-05-11 16:30:00",235024,0.179,63.3,11.46,100,52.60205,0,856.2081,0,-4.777,3.162,176,12.94,11.61,7.641096,0.143,52.16,60.86,33.83,35.88
"2016-05-11 16:40:00",235025,0.383,124,11.48,100,90.36358,0,856.2147,0,-4.879,3.163,180,12.94,11.66,12.98259,0.143,52.05,60.8,33.8,35.86
"2016-05-11 16:50:00",235026,0.5,97.7,11.36,100,63.52848,0,856.4343,0,-5.011,3.165,176,12.93,11.67,8.675281,0.134,52.1,60.8,33.81,35.86
"2016-05-11 17:00:00",235027,0.526,45.91,11.19,100,20.33298,0,856.7318,0,-4.503,3.161,180,12.94,11.7,2.693538,0.132,52.05,60.74,33.8,35.85
"2016-05-11 17:10:00",235028,0.415,105.3,11.06,100,18.04629,0,856.8715,0,-4.819,3.165,185,12.94,11.7,2.545795,0.141,52.05,60.68,33.8,35.83
"2016-05-11 17:20:00",235029,0.63,127.8,10.9,100,22.61734,0,856.9879,0,-4.167,3.159,186,12.99,11.72,3.436299,0.151,51.99,60.68,33.79,35.83
"2016-05-11 17:30:00",235030,0.309,117.2,10.92,100,33.81886,0,857.1387,0,-4.362,3.161,185,13.02,11.75,5.179511,0.153,51.99,60.62,33.79,35.82
"2016-05-11 17:40:00",235031,0.428,26.11,10.89,100,48.63263,0,857.1307,0,-4.492,3.162,186,13.04,11.77,7.476053,0.153,51.99,60.5,33.79,35.79
"2016-05-11 17:50:00",235032,0.219,49.57,10.88,100,28.31538,0,857.145,0,-4.243,3.16,189,13.05,11.75,4.357617,0.154,51.94,60.44,33.77,35.78
"2016-05-11 18:00:00",235033,0.209,43.98,10.77,100,12.04965,0,857.2743,0,-4.28,3.162,177,13.06,11.75,1.701419,0.137,51.88,60.38,33.76,35.77
"2016-05-11 18:10:00",235034,0.121,249.2,10.57,100,2.660753,0,857.2855,0,-3.525,3.156,212,13.02,11.76,0.1894733,0.067,51.94,60.33,33.77,35.75
"2016-05-11 18:20:00",235035,0.15,285.9,10.24,100,3.14421,0,857.5119,0,-1.418,3.137,286,12.99,11.76,0.3978997,0.128,51.88,60.33,33.76,35.75
"2016-05-11 18:30:00",235036,0.243,271.5,9.87,100,2.252048,0,857.7188,0,-1.224,3.137,284,12.97,11.78,0.2349511,0.09,51.88,60.27,33.76,35.74
"2016-05-11 18:40:00",235037,0.156,279.4,9.69,100,0.3615859,0,857.8723,0,-1.354,3.139,282,12.97,11.79,0.007579082,0,51.88,60.27,33.76,35.74
"2016-05-11 18:50:00",235038,0.109,275.9,9.64,100,0,0,857.9598,0,-2.119,3.147,262,12.98,11.78,0.2917947,0,51.82,60.27,33.75,35.74
"2016-05-11 19:00:00",235039,0.148,189.8,9.43,100,0,0,858.2382,0,-1.41,3.141,293,13.01,11.79,0.07200127,0,51.82,60.27,33.75,35.74
"2016-05-11 19:10:00",235040,0.229,281.5,9.27,100,0,0,858.3077,0,-2.455,3.152,254,12.97,11.8,0.1364235,0,51.71,60.21,33.72,35.73
"2016-05-11 19:20:00",235041,0.11,285.5,9.12,100,0,0,858.5309,0,-2.101,3.149,271,12.89,11.8,0.07200127,0,51.71,60.21,33.72,35.73
"2016-05-11 19:30:00",235042,0.218,294.4,9.04,100,0,0,858.6088,0,-2.739,3.156,224,12.89,11.79,0.3600064,0,51.71,60.21,33.72,35.73
"2016-05-11 19:40:00",235043,0.321,252.8,8.9,100,0,0,858.8111,0,-2.461,3.154,222,12.9,11.79,0.1705294,0,51.71,60.21,33.72,35.73
"2016-05-11 19:50:00",235044,0.422,301.4,8.63,100,0,0,858.8069,0,-3.508,3.166,198,12.95,11.8,0.3259005,0,51.71,60.21,33.72,35.73
"2016-05-11 20:00:00",235045,0.274,104.6,8.68,100,0,0,858.8595,0,-1.782,3.149,251,12.84,11.8,0.4774822,0,51.66,60.15,33.7,35.71
"2016-05-11 20:10:00",235046,0.214,297.9,8.66,100,0,0,858.9122,0,-1.477,3.146,248,12.8,11.8,0.4547449,0,51.66,60.15,33.7,35.71
"2016-05-11 20:20:00",235047,0.078,188.2,8.67,100,0,0,859.0659,0,-2.461,3.154,227,12.8,11.8,0.511588,0,51.66,60.09,33.7,35.7
"2016-05-11 20:30:00",235048,0.084,280.3,8.61,100,0,0,859.0807,0,-1.907,3.15,235,12.84,11.8,0.4736926,0,51.66,60.09,33.7,35.7
"2016-05-11 20:40:00",235049,0.874,311.8,8.38,100,0,0,859.285,0,-2.04,3.153,229,12.85,11.79,0.4471658,0,51.6,60.09,33.69,35.7
"2016-05-11 20:50:00",235050,0.722,293.4,8.34,100,0,0,859.5251,0,-2.548,3.158,221,12.79,11.8,0.5494834,0,51.6,60.03,33.69,35.69
"2016-05-11 21:00:00",235051,0.236,190.2,8.43,100,0,0,859.5777,0,-2.954,3.162,211,12.73,11.81,0.6328533,0,51.6,60.03,33.69,35.69
"2016-05-11 21:10:00",235052,0.515,281.6,8.28,100,0,0,859.7147,0,-4.122,3.174,185,12.75,11.81,0.4661135,0,51.6,60.03,33.69,35.69
"2016-05-11 21:20:00",235053,0.391,276.8,8.19,100,0,0,859.801,0,-3.842,3.171,202,12.76,11.8,0.4926403,0,51.6,60.03,33.69,35.69
"2016-05-11 21:30:00",235054,0.637,269.5,8.16,100,0,0,859.8178,0,-4.149,3.175,196,12.65,11.8,0.4547449,0,51.55,60.03,33.68,35.69
"2016-05-11 21:40:00",235055,0.8,258.8,8,100,0,0,860.0832,0,-3.567,3.17,213,12.63,11.8,0.4547449,0,51.6,59.97,33.69,35.67
"2016-05-11 21:50:00",235056,0.86,270.5,7.857,100,0,0,860.3276,0,-2.174,3.157,265,12.68,11.8,0.4547449,0,51.6,59.97,33.69,35.67
"2016-05-11 22:00:00",235057,0.772,251.9,7.796,100,0,0,860.3297,0,-3.797,3.173,211,12.71,11.81,0.4547449,0,51.6,59.97,33.69,35.67
"2016-05-11 22:10:00",235058,0.511,223.6,7.723,100,0,0,860.3907,0,-4.153,3.177,203,12.56,11.82,0.4547449,0,51.55,59.97,33.68,35.67
"2016-05-11 22:20:00",235059,0.777,278.1,7.624,100,0,0,860.5781,0,-3.799,3.174,204,12.6,11.83,0.4547449,0,51.55,59.97,33.68,35.67
"2016-05-11 22:30:00",235060,0.618,289.6,7.569,99.8,0,0,860.5823,0,-5.068,3.187,186,12.6,11.84,0.4547449,0,51.55,60.03,33.68,35.69
"2016-05-11 22:40:00",235061,0.609,269.2,7.523,100,0,0,860.7804,0,-3.498,3.172,213,12.49,11.84,0.5873788,0,51.55,59.97,33.68,35.67
"2016-05-11 22:50:00",235062,0.555,265.5,7.448,99.8,0,0,860.8351,0,-3.194,3.169,209,12.47,11.85,0.6555906,0,51.55,59.91,33.68,35.66
"2016-05-11 23:00:00",235063,0.762,272.5,7.44,99.9,0,0,861.0794,0,-4.994,3.187,189,12.54,11.84,0.5115892,0,51.55,59.97,33.68,35.67
"2016-05-11 23:10:00",235064,0.926,299,7.437,99,0,0,861.3365,0,-3.828,3.175,195,12.53,11.84,0.5381219,0,51.55,59.97,33.68,35.67
"2016-05-11 23:20:00",235065,1.035,298.2,7.456,95.9,0,0,861.3533,0,-4.469,3.182,190,12.43,11.84,0.5457084,0,51.55,59.97,33.68,35.67
"2016-05-11 23:30:00",235066,0.973,308.1,7.39,97.8,0,0,861.5323,0,-4.072,3.178,188,12.46,11.83,0.4775206,0,51.49,59.97,33.66,35.67
"2016-05-11 23:40:00",235067,0.777,297,7.354,99.2,0,0,861.7261,0,-5.061,3.188,180,12.48,11.86,0.4547956,0,51.49,59.91,33.66,35.66
"2016-05-11 23:50:00",235068,0.799,291.8,7.297,99.8,0,0,861.8483,0,-4.938,3.188,194,12.34,11.83,0.4547985,0,51.55,59.91,33.68,35.66
